Location: Unspecified
(54.1780°N, 0.0000°E)
Time: 18:30:56
(UTC+00:00)

Tiros 1 - Pass Details

Date: 23 June 2019
Orbit: 630 x 664 km, 48.4° (Epoch: 19 August)

Event Time Altitude Azimuth Distance (km) Brightness Sun altitude
Rises 03:12:31 0° 269° (W) 2,935 10.1 -2.3°
Reaches altitude 10° 03:15:01 10° 260° (W) 2,020 9.2 -2.0°
Maximum altitude 03:19:09 32° 197° (SSW) 1,076 7.9 -1.6°
Drops below altitude 10° 03:23:16 10° 134° (SE) 2,007 9.7 -1.2°
Sets 03:25:45 0° 125° (SE) 2,912 10.7 -0.9°
